Location: Castifao
(42.5040°N, 9.1124°E)
Time: 21:34:31
(UTC+00:00)

Cosmos 44 Rocket - Pass Details

Date: 23 January 2020
Orbit: 660 x 730 km, 65.1° (Epoch: 20 February)

Event Time Altitude Azimuth Distance (km) Brightness Sun altitude
Rises 18:09:48 0° 183° (S) 3,038 6.8 -19.2°
Reaches altitude 10° 18:12:23 10° 172° (S) 2,115 5.8 -19.7°
Enters shadow 18:15:16 25° 139° (SE) 1,345 4.5 -20.2°
